Year,Month,Day,Hour,Minute,Value (Times are PST for temperature in C)
2013,07,01,00,00,17.70
2013,07,01,00,01,17.70
2013,07,01,00,02,17.70
2013,07,01,00,03,17.70
2013,07,01,00,04,17.70
2013,07,01,00,05,17.70
2013,07,01,00,06,17.70
2013,07,01,00,07,17.60
2013,07,01,00,08,17.60
2013,07,01,00,09,17.50
2013,07,01,00,10,17.30
2013,07,01,00,11,17.30
2013,07,01,00,12,17.20
2013,07,01,00,13,17.20
2013,07,01,00,14,17.10
2013,07,01,00,15,17.00
2013,07,01,00,16,17.00
2013,07,01,00,17,17.00
2013,07,01,00,18,16.90
2013,07,01,00,19,16.90
2013,07,01,00,20,16.90
2013,07,01,00,21,16.90
2013,07,01,00,22,16.80
2013,07,01,00,23,16.80
2013,07,01,00,24,16.80
2013,07,01,00,25,16.80
2013,07,01,00,26,16.80
2013,07,01,00,27,16.80
2013,07,01,00,28,16.80
2013,07,01,00,29,16.80
2013,07,01,00,30,16.80
2013,07,01,00,31,16.80
2013,07,01,00,32,16.70
2013,07,01,00,33,16.70
2013,07,01,00,34,16.70
2013,07,01,00,35,16.70
2013,07,01,00,36,16.70
2013,07,01,00,37,16.60
2013,07,01,00,38,16.60
2013,07,01,00,39,16.60
2013,07,01,00,40,16.60
2013,07,01,00,41,16.60
2013,07,01,00,42,16.60
2013,07,01,00,43,16.60
2013,07,01,00,44,16.60
2013,07,01,00,45,16.60
2013,07,01,00,46,16.60
2013,07,01,00,47,16.60
2013,07,01,00,48,16.60
2013,07,01,00,49,16.60
2013,07,01,00,50,16.60
2013,07,01,00,51,16.70
2013,07,01,00,52,16.70
2013,07,01,00,53,16.70
2013,07,01,00,54,16.70
2013,07,01,00,55,16.70
2013,07,01,00,56,16.70
2013,07,01,00,57,16.70
2013,07,01,00,58,16.70
2013,07,01,00,59,16.70
2013,07,01,01,00,16.70
2013,07,01,01,01,16.70
2013,07,01,01,02,16.70
2013,07,01,01,03,16.70
2013,07,01,01,04,16.70
2013,07,01,01,05,16.70
2013,07,01,01,06,16.70
2013,07,01,01,07,16.70
2013,07,01,01,08,16.70
2013,07,01,01,09,16.70
2013,07,01,01,10,16.70
2013,07,01,01,11,16.70
2013,07,01,01,12,16.70
2013,07,01,01,13,16.70
2013,07,01,01,14,16.70
2013,07,01,01,15,16.70
2013,07,01,01,16,16.70
2013,07,01,01,17,16.60
2013,07,01,01,18,16.60
2013,07,01,01,19,16.60
2013,07,01,01,20,16.60
2013,07,01,01,21,16.60
2013,07,01,01,22,16.60
2013,07,01,01,23,16.60
2013,07,01,01,24,16.60
2013,07,01,01,25,16.60
2013,07,01,01,26,16.60
2013,07,01,01,27,16.60
2013,07,01,01,28,16.60
2013,07,01,01,29,16.60
2013,07,01,01,30,16.60
2013,07,01,01,31,16.60
2013,07,01,01,32,16.60
2013,07,01,01,33,16.60
2013,07,01,01,34,16.60
2013,07,01,01,35,16.60
2013,07,01,01,36,16.60
2013,07,01,01,37,16.60
2013,07,01,01,38,16.60
2013,07,01,01,39,16.60
2013,07,01,01,40,16.60
2013,07,01,01,41,16.60
2013,07,01,01,42,16.60
2013,07,01,01,43,16.60
2013,07,01,01,44,16.60
2013,07,01,01,45,16.60
2013,07,01,01,46,16.60
2013,07,01,01,47,16.50
2013,07,01,01,48,16.40
2013,07,01,01,49,16.40
2013,07,01,01,50,16.40
2013,07,01,01,51,16.40
2013,07,01,01,52,16.40
2013,07,01,01,53,16.40
2013,07,01,01,54,16.40
2013,07,01,01,55,16.40
2013,07,01,01,56,16.40
2013,07,01,01,57,16.40
2013,07,01,01,58,16.40
2013,07,01,01,59,16.40
2013,07,01,02,00,16.30
2013,07,01,02,01,16.30
2013,07,01,02,02,16.30
2013,07,01,02,03,16.30
2013,07,01,02,04,16.30
2013,07,01,02,05,16.30
2013,07,01,02,06,16.20
2013,07,01,02,07,16.20
2013,07,01,02,08,16.20
2013,07,01,02,09,16.30
2013,07,01,02,10,16.30
2013,07,01,02,11,16.30
2013,07,01,02,12,16.20
2013,07,01,02,13,16.20
2013,07,01,02,14,16.20
2013,07,01,02,15,16.20
2013,07,01,02,16,16.20
2013,07,01,02,17,16.10
2013,07,01,02,18,16.10
2013,07,01,02,19,16.10
2013,07,01,02,20,16.10
2013,07,01,02,21,16.10
2013,07,01,02,22,16.10
2013,07,01,02,23,16.10
2013,07,01,02,24,16.10
2013,07,01,02,25,16.10
2013,07,01,02,26,16.10
2013,07,01,02,27,16.10
2013,07,01,02,28,16.10
2013,07,01,02,29,16.10
2013,07,01,02,30,16.10
2013,07,01,02,31,16.10
2013,07,01,02,32,16.10
2013,07,01,02,33,16.10
2013,07,01,02,34,16.10
2013,07,01,02,35,16.10
2013,07,01,02,36,16.10
2013,07,01,02,37,16.10
2013,07,01,02,38,16.10
2013,07,01,02,39,16.10
2013,07,01,02,40,16.10
2013,07,01,02,41,16.10
2013,07,01,02,42,16.10
2013,07,01,02,43,16.10
2013,07,01,02,44,16.10
2013,07,01,02,45,16.10
2013,07,01,02,46,16.10
2013,07,01,02,47,16.10
2013,07,01,02,48,16.10
2013,07,01,02,49,16.00
2013,07,01,02,50,15.90
2013,07,01,02,51,15.90
2013,07,01,02,52,15.90
2013,07,01,02,53,15.90
2013,07,01,02,54,15.80
2013,07,01,02,55,15.80
2013,07,01,02,56,15.80
2013,07,01,02,57,15.80
2013,07,01,02,58,15.80
2013,07,01,02,59,15.80
2013,07,01,03,00,15.80
2013,07,01,03,01,15.80
2013,07,01,03,02,15.80
2013,07,01,03,03,15.80
2013,07,01,03,04,15.80
2013,07,01,03,05,15.80
2013,07,01,03,06,15.80
2013,07,01,03,07,15.80
2013,07,01,03,08,15.80
2013,07,01,03,09,15.80
2013,07,01,03,10,15.70
2013,07,01,03,11,15.70
2013,07,01,03,12,15.70
2013,07,01,03,13,15.70
2013,07,01,03,14,15.70
2013,07,01,03,15,15.70
2013,07,01,03,16,15.70
2013,07,01,03,17,15.70
2013,07,01,03,18,15.70
2013,07,01,03,19,15.70
2013,07,01,03,20,15.70
2013,07,01,03,21,15.70
2013,07,01,03,22,15.70
2013,07,01,03,23,15.70
2013,07,01,03,24,15.70
2013,07,01,03,25,15.70
2013,07,01,03,26,15.70
2013,07,01,03,27,15.70
2013,07,01,03,28,15.70
2013,07,01,03,29,15.70
2013,07,01,03,30,15.70
2013,07,01,03,31,15.70
2013,07,01,03,32,15.70
2013,07,01,03,33,15.70
2013,07,01,03,34,15.70
2013,07,01,03,35,15.60
2013,07,01,03,36,15.60
2013,07,01,03,37,15.60
2013,07,01,03,38,15.60
2013,07,01,03,39,15.60
2013,07,01,03,40,15.60
2013,07,01,03,41,15.60
2013,07,01,03,42,15.60
2013,07,01,03,43,15.60
2013,07,01,03,44,15.60
2013,07,01,03,45,15.60
2013,07,01,03,46,15.60
2013,07,01,03,47,15.60
2013,07,01,03,48,15.60
2013,07,01,03,49,15.60
2013,07,01,03,50,15.60
2013,07,01,03,51,15.50
2013,07,01,03,52,15.50
2013,07,01,03,53,15.50
2013,07,01,03,54,15.40
2013,07,01,03,55,15.40
2013,07,01,03,56,15.30
2013,07,01,03,57,15.30
2013,07,01,03,58,15.30
2013,07,01,03,59,15.30
2013,07,01,04,00,15.30
2013,07,01,04,01,15.30
2013,07,01,04,02,15.30
2013,07,01,04,03,15.30
2013,07,01,04,04,15.30
2013,07,01,04,05,15.30
2013,07,01,04,06,15.30
2013,07,01,04,07,15.30
2013,07,01,04,08,15.30
2013,07,01,04,09,15.20
2013,07,01,04,10,15.20
2013,07,01,04,11,15.10
2013,07,01,04,12,15.10
2013,07,01,04,13,15.10
2013,07,01,04,14,15.00
2013,07,01,04,15,15.00
2013,07,01,04,16,14.90
2013,07,01,04,17,14.90
2013,07,01,04,18,14.80
2013,07,01,04,19,14.80
2013,07,01,04,20,14.80
2013,07,01,04,21,14.80
2013,07,01,04,22,14.80
2013,07,01,04,23,14.80
2013,07,01,04,24,14.80
2013,07,01,04,25,14.80
2013,07,01,04,26,14.70
2013,07,01,04,27,14.70
2013,07,01,04,28,14.70
2013,07,01,04,29,14.60
2013,07,01,04,30,14.60
2013,07,01,04,31,14.60
2013,07,01,04,32,14.60
2013,07,01,04,33,14.60
2013,07,01,04,34,14.60
2013,07,01,04,35,14.60
2013,07,01,04,36,14.60
2013,07,01,04,37,14.60
2013,07,01,04,38,14.50
2013,07,01,04,39,14.50
2013,07,01,04,40,14.50
2013,07,01,04,41,14.50
2013,07,01,04,42,14.50
2013,07,01,04,43,14.50
2013,07,01,04,44,14.50
2013,07,01,04,45,14.50
2013,07,01,04,46,14.50
2013,07,01,04,47,14.50
2013,07,01,04,48,14.50
2013,07,01,04,49,14.50
2013,07,01,04,50,14.50
2013,07,01,04,51,14.50
2013,07,01,04,52,14.50
2013,07,01,04,53,14.50
2013,07,01,04,54,14.50
2013,07,01,04,55,14.50
2013,07,01,04,56,14.50
2013,07,01,04,57,14.50
2013,07,01,04,58,14.50
2013,07,01,04,59,14.50
2013,07,01,05,00,14.50
2013,07,01,05,01,14.50
2013,07,01,05,02,14.50
2013,07,01,05,03,14.50
2013,07,01,05,04,14.50
2013,07,01,05,05,14.50
2013,07,01,05,06,14.50
2013,07,01,05,07,14.50
2013,07,01,05,08,14.50
2013,07,01,05,09,14.50
2013,07,01,05,10,14.50
2013,07,01,05,11,14.50
2013,07,01,05,12,14.50
2013,07,01,05,13,14.50
2013,07,01,05,14,14.50
2013,07,01,05,15,14.50
2013,07,01,05,16,14.50
2013,07,01,05,17,14.50
2013,07,01,05,18,14.50
2013,07,01,05,19,14.40
2013,07,01,05,20,14.40
2013,07,01,05,21,14.40
2013,07,01,05,22,14.40
2013,07,01,05,23,14.40
2013,07,01,05,24,14.40
2013,07,01,05,25,14.40
2013,07,01,05,26,14.40
2013,07,01,05,27,14.50
2013,07,01,05,28,14.50
2013,07,01,05,29,14.50
2013,07,01,05,30,14.50
2013,07,01,05,31,14.50
2013,07,01,05,32,14.50
2013,07,01,05,33,14.50
2013,07,01,05,34,14.50
2013,07,01,05,35,14.50
2013,07,01,05,36,14.50
2013,07,01,05,37,14.50
2013,07,01,05,38,14.50
2013,07,01,05,39,14.50
2013,07,01,05,40,14.50
2013,07,01,05,41,14.50
2013,07,01,05,42,14.50
2013,07,01,05,43,14.50
2013,07,01,05,44,14.50
2013,07,01,05,45,14.50
2013,07,01,05,46,14.60
2013,07,01,05,47,14.60
2013,07,01,05,48,14.60
2013,07,01,05,49,14.60
2013,07,01,05,50,14.60
2013,07,01,05,51,14.60
2013,07,01,05,52,14.60
2013,07,01,05,53,14.60
2013,07,01,05,54,14.70
2013,07,01,05,55,14.70
2013,07,01,05,56,14.70
2013,07,01,05,57,14.70
2013,07,01,05,58,14.80
2013,07,01,05,59,14.80
2013,07,01,06,00,14.80
2013,07,01,06,01,14.80
2013,07,01,06,02,14.90
2013,07,01,06,03,14.90
2013,07,01,06,04,15.00
2013,07,01,06,05,15.00
2013,07,01,06,06,15.10
2013,07,01,06,07,15.10
2013,07,01,06,08,15.20
2013,07,01,06,09,15.20
2013,07,01,06,10,15.20
2013,07,01,06,11,15.30
2013,07,01,06,12,15.30
2013,07,01,06,13,15.30
2013,07,01,06,14,15.30
2013,07,01,06,15,15.30
2013,07,01,06,16,15.30
2013,07,01,06,17,15.30
2013,07,01,06,18,15.40
2013,07,01,06,19,15.40
2013,07,01,06,20,15.40
2013,07,01,06,21,15.50
2013,07,01,06,22,15.50
2013,07,01,06,23,15.50
2013,07,01,06,24,15.50
2013,07,01,06,25,15.50
2013,07,01,06,26,15.50
2013,07,01,06,27,15.60
2013,07,01,06,28,15.60
2013,07,01,06,29,15.70
2013,07,01,06,30,15.70
2013,07,01,06,31,15.70
2013,07,01,06,32,15.80
2013,07,01,06,33,15.90
2013,07,01,06,34,16.10
2013,07,01,06,35,16.10
2013,07,01,06,36,16.20
2013,07,01,06,37,16.30
2013,07,01,06,38,16.40
2013,07,01,06,39,16.40
2013,07,01,06,40,16.40
2013,07,01,06,41,16.50
2013,07,01,06,42,16.60
2013,07,01,06,43,16.60
2013,07,01,06,44,16.60
2013,07,01,06,45,16.60
2013,07,01,06,46,16.70
2013,07,01,06,47,16.70
2013,07,01,06,48,16.70
2013,07,01,06,49,16.70
2013,07,01,06,50,16.70
2013,07,01,06,51,16.80
2013,07,01,06,52,16.80
2013,07,01,06,53,16.90
2013,07,01,06,54,16.90
2013,07,01,06,55,16.90
2013,07,01,06,56,17.00
2013,07,01,06,57,17.10
2013,07,01,06,58,17.20
2013,07,01,06,59,17.30
2013,07,01,07,00,17.30
2013,07,01,07,01,17.50
2013,07,01,07,02,17.50
2013,07,01,07,03,17.60
2013,07,01,07,04,17.50
2013,07,01,07,05,17.60
2013,07,01,07,06,17.60
2013,07,01,07,07,17.60
2013,07,01,07,08,17.60
2013,07,01,07,09,17.60
2013,07,01,07,10,17.50
2013,07,01,07,11,17.50
2013,07,01,07,12,17.40
2013,07,01,07,13,17.30
2013,07,01,07,14,17.20
2013,07,01,07,15,17.00
2013,07,01,07,16,17.00
2013,07,01,07,17,17.00
2013,07,01,07,18,16.90
2013,07,01,07,19,17.00
2013,07,01,07,20,17.00
2013,07,01,07,21,17.00
2013,07,01,07,22,17.00
2013,07,01,07,23,17.10
2013,07,01,07,24,17.20
2013,07,01,07,25,17.30
2013,07,01,07,26,17.30
2013,07,01,07,27,17.40
2013,07,01,07,28,17.50
2013,07,01,07,29,17.60
2013,07,01,07,30,17.60
2013,07,01,07,31,17.70
2013,07,01,07,32,17.70
2013,07,01,07,33,17.80
2013,07,01,07,34,17.90
2013,07,01,07,35,17.90
2013,07,01,07,36,18.00
2013,07,01,07,37,18.10
2013,07,01,07,38,18.20
2013,07,01,07,39,18.20
2013,07,01,07,40,18.30
2013,07,01,07,41,18.30
2013,07,01,07,42,18.40
2013,07,01,07,43,18.40
2013,07,01,07,44,18.40
2013,07,01,07,45,18.40
2013,07,01,07,46,18.40
2013,07,01,07,47,18.50
2013,07,01,07,48,18.50
2013,07,01,07,49,18.60
2013,07,01,07,50,18.70
2013,07,01,07,51,18.70
2013,07,01,07,52,18.80
2013,07,01,07,53,18.90
2013,07,01,07,54,19.00
2013,07,01,07,55,19.10
2013,07,01,07,56,19.20
2013,07,01,07,57,19.20
2013,07,01,07,58,19.20
2013,07,01,07,59,19.20
2013,07,01,08,00,19.10
2013,07,01,08,01,19.10
2013,07,01,08,02,19.10
2013,07,01,08,03,19.10
2013,07,01,08,04,19.10
2013,07,01,08,05,19.20
2013,07,01,08,06,19.30
2013,07,01,08,07,19.40
2013,07,01,08,08,19.40
2013,07,01,08,09,19.30
2013,07,01,08,10,19.30
2013,07,01,08,11,19.30
2013,07,01,08,12,19.30
2013,07,01,08,13,19.30
2013,07,01,08,14,19.40
2013,07,01,08,15,19.40
2013,07,01,08,16,19.30
2013,07,01,08,17,19.30
2013,07,01,08,18,19.30
2013,07,01,08,19,19.30
2013,07,01,08,20,19.30
2013,07,01,08,21,19.30
2013,07,01,08,22,19.30
2013,07,01,08,23,19.20
2013,07,01,08,24,19.10
2013,07,01,08,25,19.10
2013,07,01,08,26,19.20
2013,07,01,08,27,19.30
2013,07,01,08,28,19.30
2013,07,01,08,29,19.40
2013,07,01,08,30,19.50
2013,07,01,08,31,19.60
2013,07,01,08,32,19.70
2013,07,01,08,33,19.60
2013,07,01,08,34,19.60
2013,07,01,08,35,19.70
2013,07,01,08,36,19.70
2013,07,01,08,37,19.80
2013,07,01,08,38,19.80
2013,07,01,08,39,19.90
2013,07,01,08,40,19.90
2013,07,01,08,41,19.90
2013,07,01,08,42,20.00
2013,07,01,08,43,20.10
2013,07,01,08,44,20.10
2013,07,01,08,45,20.10
2013,07,01,08,46,20.10
2013,07,01,08,47,20.10
2013,07,01,08,48,20.10
2013,07,01,08,49,20.20
2013,07,01,08,50,20.20
2013,07,01,08,51,20.20
2013,07,01,08,52,20.30
2013,07,01,08,53,20.30
2013,07,01,08,54,20.40
2013,07,01,08,55,20.40
2013,07,01,08,56,20.30
2013,07,01,08,57,20.30
2013,07,01,08,58,20.30
2013,07,01,08,59,20.40
2013,07,01,09,00,20.40
2013,07,01,09,01,20.30
2013,07,01,09,02,20.20
2013,07,01,09,03,20.20
2013,07,01,09,04,20.20
2013,07,01,09,05,20.10
2013,07,01,09,06,20.00
2013,07,01,09,07,19.90
2013,07,01,09,08,19.90
2013,07,01,09,09,19.90
2013,07,01,09,10,19.80
2013,07,01,09,11,19.90
2013,07,01,09,12,19.90
2013,07,01,09,13,19.90
2013,07,01,09,14,19.90
2013,07,01,09,15,20.00
2013,07,01,09,16,20.10
2013,07,01,09,17,20.10
2013,07,01,09,18,20.20
2013,07,01,09,19,20.20
2013,07,01,09,20,20.20
2013,07,01,09,21,20.20
2013,07,01,09,22,20.20
2013,07,01,09,23,20.30
2013,07,01,09,24,20.30
2013,07,01,09,25,20.40
2013,07,01,09,26,20.50
2013,07,01,09,27,20.50
2013,07,01,09,28,20.60
2013,07,01,09,29,20.60
2013,07,01,09,30,20.50
2013,07,01,09,31,20.50
2013,07,01,09,32,20.60
2013,07,01,09,33,20.60
2013,07,01,09,34,20.70
2013,07,01,09,35,20.80
2013,07,01,09,36,20.90
2013,07,01,09,37,21.10
2013,07,01,09,38,21.30
2013,07,01,09,39,21.30
2013,07,01,09,40,21.40
2013,07,01,09,41,21.50
2013,07,01,09,42,21.60
2013,07,01,09,43,21.60
2013,07,01,09,44,21.60
2013,07,01,09,45,21.60
2013,07,01,09,46,21.60
2013,07,01,09,47,21.70
2013,07,01,09,48,21.80
2013,07,01,09,49,21.80
2013,07,01,09,50,21.80
2013,07,01,09,51,21.70
2013,07,01,09,52,21.60
2013,07,01,09,53,21.60
2013,07,01,09,54,21.70
2013,07,01,09,55,21.70
2013,07,01,09,56,21.70
2013,07,01,09,57,21.70
2013,07,01,09,58,21.70
2013,07,01,09,59,21.70
2013,07,01,10,00,21.60
2013,07,01,10,01,21.60
2013,07,01,10,02,21.60
2013,07,01,10,03,21.60
2013,07,01,10,04,21.50
2013,07,01,10,05,21.40
2013,07,01,10,06,21.30
2013,07,01,10,07,21.20
2013,07,01,10,08,21.20
2013,07,01,10,09,21.10
2013,07,01,10,10,20.90
2013,07,01,10,11,20.80
2013,07,01,10,12,20.60
2013,07,01,10,13,20.50
2013,07,01,10,14,20.50
2013,07,01,10,15,20.40
2013,07,01,10,16,20.40
2013,07,01,10,17,20.50
2013,07,01,10,18,20.50
2013,07,01,10,19,20.70
2013,07,01,10,20,20.80
2013,07,01,10,21,20.90
2013,07,01,10,22,21.00
2013,07,01,10,23,21.20
2013,07,01,10,24,21.30
2013,07,01,10,25,21.30
2013,07,01,10,26,21.30
2013,07,01,10,27,21.40
2013,07,01,10,28,21.40
2013,07,01,10,29,21.50
2013,07,01,10,30,21.60
2013,07,01,10,31,21.60
2013,07,01,10,32,21.60
2013,07,01,10,33,21.60
2013,07,01,10,34,21.60
2013,07,01,10,35,21.60
2013,07,01,10,36,21.60
2013,07,01,10,37,21.50
2013,07,01,10,38,21.30
2013,07,01,10,39,21.30
2013,07,01,10,40,21.20
2013,07,01,10,41,21.20
2013,07,01,10,42,21.20
2013,07,01,10,43,21.20
2013,07,01,10,44,21.20
2013,07,01,10,45,21.30
2013,07,01,10,46,21.30
2013,07,01,10,47,21.30
2013,07,01,10,48,21.30
2013,07,01,10,49,21.30
2013,07,01,10,50,21.30
2013,07,01,10,51,21.50
2013,07,01,10,52,21.60
2013,07,01,10,53,21.70
2013,07,01,10,54,21.90
2013,07,01,10,55,22.00
2013,07,01,10,56,22.20
2013,07,01,10,57,22.30
2013,07,01,10,58,22.30
2013,07,01,10,59,22.40
2013,07,01,11,00,22.50
2013,07,01,11,01,22.50
2013,07,01,11,02,22.50
2013,07,01,11,03,22.50
2013,07,01,11,04,22.40
2013,07,01,11,05,22.40
2013,07,01,11,06,22.30
2013,07,01,11,07,22.30
2013,07,01,11,08,22.40
2013,07,01,11,09,22.40
2013,07,01,11,10,22.50
2013,07,01,11,11,22.60
2013,07,01,11,12,22.60
2013,07,01,11,13,22.60
2013,07,01,11,14,22.70
2013,07,01,11,15,22.70
2013,07,01,11,16,22.70
2013,07,01,11,17,22.60
2013,07,01,11,18,22.60
2013,07,01,11,19,22.50
2013,07,01,11,20,22.50
2013,07,01,11,21,22.50
2013,07,01,11,22,22.40
2013,07,01,11,23,22.50
2013,07,01,11,24,22.50
2013,07,01,11,25,22.60
2013,07,01,11,26,22.60
2013,07,01,11,27,22.70
2013,07,01,11,28,22.70
2013,07,01,11,29,22.80
2013,07,01,11,30,23.00
2013,07,01,11,31,23.10
2013,07,01,11,32,23.30
2013,07,01,11,33,23.30
2013,07,01,11,34,23.40
2013,07,01,11,35,23.40
2013,07,01,11,36,23.60
2013,07,01,11,37,23.60
2013,07,01,11,38,23.50
2013,07,01,11,39,23.40
2013,07,01,11,40,23.40
2013,07,01,11,41,23.40
2013,07,01,11,42,23.30
2013,07,01,11,43,23.30
2013,07,01,11,44,23.20
2013,07,01,11,45,23.10
2013,07,01,11,46,23.10
2013,07,01,11,47,23.10
2013,07,01,11,48,23.20
2013,07,01,11,49,23.20
2013,07,01,11,50,23.30
2013,07,01,11,51,23.30
2013,07,01,11,52,23.40
2013,07,01,11,53,23.40
2013,07,01,11,54,23.40
2013,07,01,11,55,23.50
2013,07,01,11,56,23.60
2013,07,01,11,57,23.60
2013,07,01,11,58,23.70
2013,07,01,11,59,23.50
2013,07,01,12,00,23.40
2013,07,01,12,01,23.20
2013,07,01,12,02,23.10
2013,07,01,12,03,22.90
2013,07,01,12,04,22.90
2013,07,01,12,05,22.90
2013,07,01,12,06,22.90
2013,07,01,12,07,22.90
2013,07,01,12,08,22.90
2013,07,01,12,09,23.00
2013,07,01,12,10,23.10
2013,07,01,12,11,23.10
2013,07,01,12,12,23.10
2013,07,01,12,13,23.20
2013,07,01,12,14,23.20
2013,07,01,12,15,23.20
2013,07,01,12,16,23.20
2013,07,01,12,17,23.10
2013,07,01,12,18,23.10
2013,07,01,12,19,23.10
2013,07,01,12,20,23.10
2013,07,01,12,21,23.10
2013,07,01,12,22,23.10
2013,07,01,12,23,23.10
2013,07,01,12,24,23.10
2013,07,01,12,25,23.10
2013,07,01,12,26,23.10
2013,07,01,12,27,23.10
2013,07,01,12,28,23.00
2013,07,01,12,29,22.90
2013,07,01,12,30,22.90
2013,07,01,12,31,23.00
2013,07,01,12,32,23.10
2013,07,01,12,33,23.10
2013,07,01,12,34,23.20
2013,07,01,12,35,23.20
2013,07,01,12,36,23.20
2013,07,01,12,37,23.20
2013,07,01,12,38,23.20
2013,07,01,12,39,23.30
2013,07,01,12,40,23.30
2013,07,01,12,41,23.40
2013,07,01,12,42,23.40
2013,07,01,12,43,23.50
2013,07,01,12,44,23.60
2013,07,01,12,45,23.60
2013,07,01,12,46,23.60
2013,07,01,12,47,23.60
2013,07,01,12,48,23.40
2013,07,01,12,49,23.30
2013,07,01,12,50,23.00
2013,07,01,12,51,22.90
2013,07,01,12,52,22.80
2013,07,01,12,53,22.60
2013,07,01,12,54,22.50
2013,07,01,12,55,22.30
2013,07,01,12,56,22.10
2013,07,01,12,57,22.00
2013,07,01,12,58,21.90
2013,07,01,12,59,21.80
2013,07,01,13,00,21.80
2013,07,01,13,01,21.80
2013,07,01,13,02,21.80
2013,07,01,13,03,21.80
2013,07,01,13,04,21.80
2013,07,01,13,05,21.80
2013,07,01,13,06,21.80
2013,07,01,13,07,21.90
2013,07,01,13,08,22.00
2013,07,01,13,09,22.00
2013,07,01,13,10,22.10
2013,07,01,13,11,22.00
2013,07,01,13,12,22.00
2013,07,01,13,13,21.90
2013,07,01,13,14,21.90
2013,07,01,13,15,21.90
2013,07,01,13,16,22.10
2013,07,01,13,17,22.10
2013,07,01,13,18,22.20
2013,07,01,13,19,22.20
2013,07,01,13,20,22.10
2013,07,01,13,21,22.10
2013,07,01,13,22,22.00
2013,07,01,13,23,22.00
2013,07,01,13,24,22.00
2013,07,01,13,25,21.90
2013,07,01,13,26,21.90
2013,07,01,13,27,21.90
2013,07,01,13,28,21.90
2013,07,01,13,29,21.80
2013,07,01,13,30,21.80
2013,07,01,13,31,21.80
2013,07,01,13,32,21.80
2013,07,01,13,33,21.90
2013,07,01,13,34,22.00
2013,07,01,13,35,22.10
2013,07,01,13,36,22.20
2013,07,01,13,37,22.20
2013,07,01,13,38,22.20
2013,07,01,13,39,22.10
2013,07,01,13,40,22.00
2013,07,01,13,41,21.70
2013,07,01,13,42,21.50
2013,07,01,13,43,21.30
2013,07,01,13,44,21.00
2013,07,01,13,45,20.80
2013,07,01,13,46,20.60
2013,07,01,13,47,20.50
2013,07,01,13,48,20.40
2013,07,01,13,49,20.40
2013,07,01,13,50,20.50
2013,07,01,13,51,20.60
2013,07,01,13,52,20.70
2013,07,01,13,53,20.90
2013,07,01,13,54,21.00
2013,07,01,13,55,21.10
2013,07,01,13,56,21.20
2013,07,01,13,57,21.30
2013,07,01,13,58,21.30
2013,07,01,13,59,21.30
2013,07,01,14,00,21.30
2013,07,01,14,01,21.40
2013,07,01,14,02,21.50
2013,07,01,14,03,21.60
2013,07,01,14,04,21.60
2013,07,01,14,05,21.60
2013,07,01,14,06,21.60
2013,07,01,14,07,21.60
2013,07,01,14,08,21.70
2013,07,01,14,09,21.90
2013,07,01,14,10,22.10
2013,07,01,14,11,22.20
2013,07,01,14,12,22.30
2013,07,01,14,13,22.40
2013,07,01,14,14,22.50
2013,07,01,14,15,22.60
2013,07,01,14,16,22.70
2013,07,01,14,17,22.90
2013,07,01,14,18,23.00
2013,07,01,14,19,23.10
2013,07,01,14,20,23.20
2013,07,01,14,21,23.10
2013,07,01,14,22,23.00
2013,07,01,14,23,22.90
2013,07,01,14,24,22.80
2013,07,01,14,25,22.60
2013,07,01,14,26,22.50
2013,07,01,14,27,22.40
2013,07,01,14,28,22.40
2013,07,01,14,29,22.30
2013,07,01,14,30,22.30
2013,07,01,14,31,22.30
2013,07,01,14,32,22.30
2013,07,01,14,33,22.30
2013,07,01,14,34,22.30
2013,07,01,14,35,22.30
2013,07,01,14,36,22.30
2013,07,01,14,37,22.30
2013,07,01,14,38,22.40
2013,07,01,14,39,22.40
2013,07,01,14,40,22.50
2013,07,01,14,41,22.50
2013,07,01,14,42,22.40
2013,07,01,14,43,22.40
2013,07,01,14,44,22.30
2013,07,01,14,45,22.30
2013,07,01,14,46,22.20
2013,07,01,14,47,22.10
2013,07,01,14,48,22.00
2013,07,01,14,49,22.00
2013,07,01,14,50,21.90
2013,07,01,14,51,21.80
2013,07,01,14,52,21.80
2013,07,01,14,53,21.80
2013,07,01,14,54,21.70
2013,07,01,14,55,21.70
2013,07,01,14,56,21.80
2013,07,01,14,57,22.00
2013,07,01,14,58,22.00
2013,07,01,14,59,22.20
2013,07,01,15,00,22.30
2013,07,01,15,01,22.50
2013,07,01,15,02,22.60
2013,07,01,15,03,22.70
2013,07,01,15,04,22.80
2013,07,01,15,05,22.90
2013,07,01,15,06,23.00
2013,07,01,15,07,23.10
2013,07,01,15,08,23.30
2013,07,01,15,09,23.40
2013,07,01,15,10,23.40
2013,07,01,15,11,23.50
2013,07,01,15,12,23.60
2013,07,01,15,13,23.60
2013,07,01,15,14,23.50
2013,07,01,15,15,23.50
2013,07,01,15,16,23.60
2013,07,01,15,17,23.60
2013,07,01,15,18,23.60
2013,07,01,15,19,23.60
2013,07,01,15,20,23.60
2013,07,01,15,21,23.60
2013,07,01,15,22,23.40
2013,07,01,15,23,23.40
2013,07,01,15,24,23.40
2013,07,01,15,25,23.30
2013,07,01,15,26,23.30
2013,07,01,15,27,23.00
2013,07,01,15,28,22.90
2013,07,01,15,29,22.80
2013,07,01,15,30,22.60
2013,07,01,15,31,22.50
2013,07,01,15,32,22.40
2013,07,01,15,33,22.30
2013,07,01,15,34,22.20
2013,07,01,15,35,22.20
2013,07,01,15,36,22.20
2013,07,01,15,37,22.20
2013,07,01,15,38,22.20
2013,07,01,15,39,22.20
2013,07,01,15,40,22.30
2013,07,01,15,41,22.40
2013,07,01,15,42,22.40
2013,07,01,15,43,22.50
2013,07,01,15,44,22.60
2013,07,01,15,45,22.80
2013,07,01,15,46,22.90
2013,07,01,15,47,23.00
2013,07,01,15,48,23.10
2013,07,01,15,49,23.20
2013,07,01,15,50,23.20
2013,07,01,15,51,23.20
2013,07,01,15,52,23.20
2013,07,01,15,53,23.20
2013,07,01,15,54,23.20
2013,07,01,15,55,23.10
2013,07,01,15,56,23.10
2013,07,01,15,57,23.00
2013,07,01,15,58,22.90
2013,07,01,15,59,22.90
2013,07,01,16,00,22.90
2013,07,01,16,01,22.90
2013,07,01,16,02,22.90
2013,07,01,16,03,22.90
2013,07,01,16,04,22.90
2013,07,01,16,05,22.90
2013,07,01,16,06,22.80
2013,07,01,16,07,22.70
2013,07,01,16,08,22.60
2013,07,01,16,09,22.60
2013,07,01,16,10,22.40
2013,07,01,16,11,22.30
2013,07,01,16,12,22.10
2013,07,01,16,13,22.10
2013,07,01,16,14,22.00
2013,07,01,16,15,21.90
2013,07,01,16,16,21.80
2013,07,01,16,17,21.80
2013,07,01,16,18,21.60
2013,07,01,16,19,21.40
2013,07,01,16,20,21.30
2013,07,01,16,21,21.20
2013,07,01,16,22,21.00
2013,07,01,16,23,21.00
2013,07,01,16,24,20.90
2013,07,01,16,25,20.80
2013,07,01,16,26,20.70
2013,07,01,16,27,20.70
2013,07,01,16,28,20.70
2013,07,01,16,29,20.60
2013,07,01,16,30,20.60
2013,07,01,16,31,20.60
2013,07,01,16,32,20.50
2013,07,01,16,33,20.40
2013,07,01,16,34,20.30
2013,07,01,16,35,20.20
2013,07,01,16,36,20.20
2013,07,01,16,37,20.20
2013,07,01,16,38,20.20
2013,07,01,16,39,20.20
2013,07,01,16,40,20.20
2013,07,01,16,41,20.20
2013,07,01,16,42,20.20
2013,07,01,16,43,20.30
2013,07,01,16,44,20.40
2013,07,01,16,45,20.40
2013,07,01,16,46,20.40
2013,07,01,16,47,20.40
2013,07,01,16,48,20.50
2013,07,01,16,49,20.60
2013,07,01,16,50,20.70
2013,07,01,16,51,20.60
2013,07,01,16,52,20.60
2013,07,01,16,53,20.50
2013,07,01,16,54,20.50
2013,07,01,16,55,20.50
2013,07,01,16,56,20.50
2013,07,01,16,57,20.60
2013,07,01,16,58,20.60
2013,07,01,16,59,20.70
2013,07,01,17,00,20.80
2013,07,01,17,01,20.80
2013,07,01,17,02,20.70
2013,07,01,17,03,20.50
2013,07,01,17,04,20.30
2013,07,01,17,05,20.00
2013,07,01,17,06,19.80
2013,07,01,17,07,19.60
2013,07,01,17,08,19.40
2013,07,01,17,09,19.10
2013,07,01,17,10,18.90
2013,07,01,17,11,18.80
2013,07,01,17,12,18.80
2013,07,01,17,13,18.80
2013,07,01,17,14,18.90
2013,07,01,17,15,19.00
2013,07,01,17,16,19.00
2013,07,01,17,17,18.90
2013,07,01,17,18,18.90
2013,07,01,17,19,18.90